Wind_Speed
0 1 2 3 4 5 6 7 7 7 7 8 8 8 8 9 9 8 8 8 8 8 8 8 9 10 11 12 12 13 12 8 5 3 2 3 7 8 9 11 11 11 11 10 8 8 8 6 7 8 7 5 2 3 3 4 2 4 3 3 3 4 4 5 4 3 4 3 4 2 2 7 4 1 2 6 13 11 11 11 9 12 13 15 23 29 29 28
1 2 3 4 5 6 7 7 7 8 8 9 9 9 9 9 9 9 8 8 8 8 8 8 9 10 11 12 12 13 12 8 3 3 4 7 9 9 9 10 11 11 11 10 8 8 6 5 8 7 4 2 2 3 3 3 3 3 3 3 5 5 5 3 4 3 3 4 3 2 4 6 4 3 3 5 7 9 12 8 8 13 12 15 21 25 27 28
2 3 4 5 6 6 7 7 8 8 9 9 9 10 9 9 9 9 8 8 8 8 8 9 10 10 10 11 12 12 10 6 1 2 6 10 10 10 10 10 10 10 10 10 9 8 7 9 13 8 2 3 3 3 3 3 2 3 4 3 6 6 4 1 4 4 3 5 6 3 4 7 5 3 2 7 9 10 9 4 5 10 10 10 13 20 24 24
3 4 5 5 6 7 7 8 8 9 9 10 10 10 10 10 9 9 8 8 8 8 9 9 10 10 9 9 11 10 7 4 1 2 8 11 12 12 10 10 9 9 9 10 9 8 10 12 12 6 1 3 4 0 3 4 2 3 4 5 7 5 4 2 3 4 3 4 7 5 6 8 5 8 5 7 10 8 4 2 3 9 11 11 10 16 19 20
4 5 6 6 7 7 7 8 9 10 10 11 11 11 11 10 9 9 8 8 8 8 8 9 9 9 8 9 10 8 4 4 2 4 9 10 13 13 11 10 8 8 9 9 8 9 11 10 6 3 1 2 4 3 3 6 3 3 4 8 7 4 4 4 3 2 2 3 6 5 7 6 3 9 9 8 10 2 2 4 3 10 10 11 11 13 15 16
5 6 6 6 7 7 8 9 10 11 11 11 11 12 11 11 10 10 9 8 8 8 8 8 8 8 8 9 8 4 2 1 3 7 11 13 14 13 11 9 7 7 8 8 9 9 9 6 2 2 1 2 4 3 6 6 4 4 4 7 7 4 3 4 3 1 2 5 5 4 6 5 8 10 8 11 9 1 1 5 8 11 12 16 17 17 17 17
6 5 5 5 6 8 9 10 11 11 11 12 12 12 13 12 12 11 10 9 8 8 7 7 7 7 7 9 6 2 3 1 4 8 12 15 14 11 8 6 6 8 8 9 10 7 5 5 3 2 1 3 5 5 8 6 4 7 5 5 5 3 2 4 4 2 6 8 4 5 8 6 10 9 5 10 7 4 8 12 17 19 23 26 21 19 19 20
5 5 5 6 8 9 10 11 11 11 12 12 13 14 14 14 13 13 11 10 8 8 7 6 6 6 7 7 3 3 2 1 6 8 11 14 12 9 8 5 6 8 9 10 10 6 3 5 4 1 1 4 3 3 6 6 2 4 4 4 2 2 1 5 6 5 8 7 7 12 13 9 12 11 7 9 8 8 12 15 19 21 23 22 17 17 19 21
5 5 7 8 10 11 11 11 11 11 12 13 15 16 15 14 14 13 12 10 8 7 7 5 5 5 7 6 3 3 2 3 7 9 10 14 13 10 9 5 6 8 8 9 10 7 3 2 2 2 1 4 3 4 5 3 2 2 2 2 3 3 2 4 4 6 6 5 11 15 12 10 9 10 9 8 8 10 14 15 15 17 18 15 13 15 18 19
6 6 9 10 11 12 12 11 11 12 12 14 16 15 13 12 11 11 10 9 7 6 5 4 4 5 6 4 4 2 2 5 9 9 9 14 14 11 9 8 9 7 7 9 10 7 1 2 2 1 1 3 3 5 4 1 3 4 2 3 4 4 1 3 3 5 5 5 11 14 9 5 4 5 7 5 8 12 16 15 13 16 15 13 12 14 18 19
6 7 9 10 11 11 11 11 11 11 13 15 15 11 9 9 9 8 7 6 5 4 4 3 3 4 4 3 4 2 2 7 10 10 9 14 17 13 10 10 9 6 5 9 8 6 4 3 4 3 0 2 3 6 4 1 4 4 5 6 7 7 5 2 5 5 5 4 10 15 9 6 8 5 7 6 8 13 15 14 13 15 12 12 12 12 17 18
5 8 10 10 11 11 12 11 10 11 13 16 12 7 7 8 8 7 5 3 3 3 3 2 2 2 2 4 3 2 4 9 9 11 10 14 18 14 9 8 7 4 3 6 7 6 6 6 6 3 2 1 3 4 2 2 4 4 4 3 8 8 6 4 4 7 5 4 9 12 7 8 8 6 9 8 10 13 14 13 12 12 10 10 11 10 14 17
5 9 10 10 11 12 13 12 11 11 14 15 10 6 7 8 8 7 5 3 2 1 1 1 1 1 4 3 1 1 5 8 9 11 12 14 17 14 8 5 6 5 3 5 8 7 7 5 4 1 2 1 2 2 1 2 2 3 2 1 4 6 5 6 1 6 6 4 9 7 1 3 5 8 10 9 11 13 13 11 10 10 9 9 9 9 11 15
6 9 10 10 11 12 13 13 11 11 14 15 10 5 7 9 10 7 5 3 1 1 1 2 1 2 4 1 1 3 6 9 9 12 13 14 17 17 12 6 6 5 4 6 8 7 7 5 2 1 1 2 2 3 4 3 0 2 2 1 1 1 5 7 4 7 6 0 4 5 2 3 4 7 9 8 11 14 12 10 9 8 8 8 8 9 9 13
7 9 10 10 11 11 13 13 12 12 14 15 10 4 7 10 11 9 6 2 2 2 3 4 3 2 4 1 1 2 7 11 10 12 13 14 15 14 14 10 7 4 5 7 5 4 5 4 1 0 2 1 1 3 4 4 2 1 2 3 2 1 4 6 4 4 4 2 2 6 4 3 4 7 9 9 11 14 12 9 9 9 8 8 8 8 8 10
7 9 10 10 11 11 13 13 12 12 13 15 10 3 6 10 11 10 8 5 5 5 5 5 2 2 4 1 3 3 7 10 10 11 12 15 13 10 13 11 6 4 7 6 2 3 5 2 0 2 1 3 3 3 3 4 5 3 2 2 3 1 2 3 3 2 5 4 5 4 6 3 4 7 9 9 11 13 12 10 9 9 8 8 7 7 7 8
7 9 10 10 11 11 12 13 13 11 12 15 9 2 7 14 14 11 7 5 7 6 7 8 4 1 4 1 3 4 8 10 10 11 15 18 12 8 9 7 4 5 5 5 2 2 2 0 0 1 3 3 2 4 4 3 4 4 3 1 3 1 1 2 3 4 5 6 5 6 8 5 4 9 10 9 12 12 11 10 9 8 7 7 7 7 7 7
8 9 11 10 11 12 12 13 12 11 11 14 9 2 5 12 17 16 10 3 2 3 6 9 7 3 2 4 3 7 13 13 10 10 20 24 12 7 7 4 3 7 3 2 1 0 0 1 2 2 4 5 4 6 3 2 2 3 3 2 4 3 2 2 3 3 6 8 7 9 9 6 6 9 9 8 10 11 10 9 8 8 8 7 7 7 7 7
8 9 11 11 12 12 13 13 12 11 10 12 9 2 4 3 9 15 17 10 3 2 2 4 5 3 2 5 5 11 15 12 7 10 25 28 15 8 5 5 2 3 2 2 1 1 1 3 5 3 3 3 3 3 4 6 5 5 5 3 3 4 4 3 3 2 6 9 6 8 9 7 8 8 8 8 8 10 10 9 8 7 7 7 6 6 6 6
7 9 10 11 13 12 13 13 11 10 9 10 7 2 2 1 3 5 11 11 4 4 5 2 1 2 2 4 7 14 12 7 4 10 27 28 16 8 2 1 1 3 2 1 2 1 4 5 3 1 4 5 5 4 4 4 3 2 2 2 3 3 4 3 2 2 7 8 4 6 9 7 7 7 8 8 8 10 10 9 8 7 6 6 6 6 6 6
8 10 10 12 13 13 13 12 9 9 8 6 4 3 3 3 3 1 2 5 3 3 3 2 0 1 3 4 8 11 6 5 6 11 27 26 11 5 4 3 5 4 4 2 1 3 6 6 1 4 6 5 6 6 3 3 3 3 2 3 4 2 3 3 2 3 4 7 3 6 10 6 5 6 5 7 7 7 8 9 8 8 7 6 6 7 6 5
10 10 11 12 12 12 12 8 8 7 4 3 5 6 4 4 4 3 3 3 3 4 3 3 5 4 5 3 7 9 2 5 8 10 24 25 11 5 4 5 6 3 5 4 4 5 5 3 4 6 4 4 6 4 5 6 5 5 3 2 3 3 2 3 4 3 3 6 4 6 9 5 4 6 5 5 6 5 6 8 8 9 8 6 7 7 6 6
11 10 10 11 10 12 9 5 7 7 6 8 8 7 4 4 4 3 3 4 1 4 3 4 4 5 6 3 8 9 3 4 5 8 18 17 7 4 3 5 6 4 6 6 4 4 3 2 5 5 5 4 5 7 9 7 5 4 4 2 2 4 2 2 4 4 2 4 7 8 7 4 3 5 5 5 5 6 7 8 7 7 8 7 7 6 6 7
10 9 10 10 10 11 6 5 7 7 8 11 11 8 4 4 3 3 2 3 1 2 1 1 1 3 4 3 7 7 2 2 3 7 13 12 5 3 2 3 5 5 6 5 4 7 2 5 3 5 6 4 4 7 9 7 6 4 2 3 1 4 2 3 3 3 4 5 8 10 5 1 2 3 2 3 5 6 6 7 6 6 6 7 7 6 6 7
9 9 10 10 10 11 3 4 7 5 4 7 8 6 3 2 1 2 2 4 2 3 2 1 1 3 5 4 6 3 2 2 2 5 8 9 5 3 3 1 3 5 6 5 6 6 1 3 3 6 6 6 6 5 6 5 5 6 1 2 3 2 4 5 4 5 3 1 4 7 2 2 2 4 4 2 4 4 5 6 6 6 6 6 6 6 6 6
9 10 12 11 11 10 2 3 5 3 2 4 5 3 2 1 1 1 2 4 3 3 3 3 1 5 8 7 6 0 4 4 6 7 8 9 4 1 3 3 2 5 4 3 4 2 3 5 5 6 5 8 7 3 3 4 4 4 3 3 4 3 4 6 4 2 1 4 5 6 3 2 2 3 4 4 4 4 4 5 6 6 6 6 6 6 6 6
9 11 15 14 11 9 2 1 4 1 1 2 3 3 2 1 2 1 2 5 3 2 3 3 2 5 7 9 8 4 3 6 7 8 9 12 8 2 4 5 3 4 2 3 4 1 3 7 8 8 7 8 6 3 3 3 4 3 4 1 4 5 6 6 3 3 4 2 2 5 5 1 2 3 4 5 5 4 4 5 6 6 6 6 6 6 6 6
7 10 16 16 10 7 3 1 1 1 2 1 1 3 2 3 2 2 5 4 2 1 1 3 3 5 7 9 9 5 2 4 4 6 9 18 15 2 4 7 5 6 3 5 3 3 3 6 6 6 7 5 3 4 4 2 1 6 5 3 6 7 7 6 3 4 2 2 3 4 4 1 1 0 3 5 5 5 6 6 7 7 6 6 7 7 6 6
6 7 16 17 8 5 3 2 2 2 2 2 1 2 2 3 2 3 5 2 2 1 1 2 3 5 7 8 7 5 2 2 2 5 7 16 19 7 3 5 6 4 4 6 2 2 1 1 0 4 5 3 4 7 4 3 2 6 5 6 7 5 4 4 3 2 1 1 4 5 4 3 1 1 3 3 3 4 6 6 7 7 7 7 7 7 7 6
6 6 15 17 8 5 3 3 4 3 2 2 2 3 3 2 3 5 4 0 1 2 2 3 2 4 7 7 6 6 5 3 2 4 5 8 15 12 3 3 6 5 5 6 3 1 2 2 1 3 2 2 5 7 4 5 3 5 6 5 6 5 1 2 2 3 4 1 5 5 1 3 0 1 3 2 2 4 5 5 5 6 7 7 7 6 7 6
6 6 14 18 13 9 4 1 3 2 2 3 4 4 3 2 4 6 2 1 1 3 4 4 3 4 7 5 5 6 5 5 5 5 5 5 10 12 6 5 6 4 6 7 4 4 5 4 2 1 1 1 2 5 4 1 3 5 5 3 4 5 3 4 4 4 4 3 5 5 4 3 1 1 1 2 4 1 5 7 7 8 7 7 7 6 6 6
4 5 12 18 16 13 7 2 4 1 2 5 5 3 4 4 5 3 1 3 2 3 3 3 4 5 6 4 5 6 4 5 6 5 4 4 6 8 8 6 4 5 6 5 5 6 4 3 4 3 2 3 4 4 6 6 6 7 5 5 5 4 4 4 4 3 1 4 4 5 5 3 0 1 1 2 4 4 2 7 9 9 8 7 7 6 6 5
3 4 11 16 17 17 11 5 3 3 4 5 4 4 6 6 3 1 3 3 0 2 2 2 4 5 5 4 5 6 3 3 6 5 4 4 5 5 7 6 5 4 2 3 5 5 4 5 5 5 4 3 5 4 4 5 5 6 4 4 4 3 4 3 3 3 2 4 7 6 3 2 1 1 1 2 4 5 3 5 8 8 8 7 7 6 6 6
2 4 11 15 18 19 14 8 4 5 5 4 3 5 8 6 0 1 3 2 1 3 2 2 5 6 4 3 2 4 4 3 4 6 5 4 5 4 5 7 8 4 0 2 3 3 3 4 4 4 3 3 4 2 2 1 3 4 2 3 4 3 2 1 2 2 3 5 7 6 3 0 1 0 1 2 4 5 3 3 5 5 6 6 5 6 6 6
2 5 10 14 18 19 16 10 5 4 3 4 6 7 7 3 1 1 1 3 2 4 4 3 4 5 5 2 2 3 3 3 3 6 5 4 4 3 3 5 7 5 3 3 2 2 3 4 5 2 1 2 3 1 2 2 2 3 0 4 3 0 3 2 3 4 4 4 4 3 1 2 1 1 2 1 3 4 4 5 5 4 4 5 5 5 5 6
3 5 9 14 19 19 16 11 5 2 2 6 9 6 3 2 1 1 1 2 1 2 5 6 5 5 5 4 3 6 3 1 3 4 3 3 3 3 3 2 4 6 4 2 1 2 3 5 7 5 4 2 1 3 2 3 1 2 4 2 4 2 5 2 3 4 1 2 2 1 0 2 1 2 2 1 1 1 2 3 4 4 4 5 5 5 5 6
4 3 6 15 21 20 18 13 6 3 4 8 8 4 2 1 2 2 1 1 1 1 2 4 3 3 4 3 4 7 5 3 4 4 2 2 3 4 4 3 3 6 4 1 1 0 1 4 8 4 4 3 2 1 3 2 3 3 2 3 5 1 4 3 2 4 4 2 2 1 2 2 0 0 2 2 3 3 3 3 4 5 5 5 6 6 6 6
2 2 4 15 23 20 18 13 7 5 6 9 7 3 2 1 1 1 0 1 1 2 4 3 1 2 2 2 3 6 6 4 4 4 3 2 2 3 4 3 3 5 5 2 2 1 2 2 7 2 2 5 3 5 4 5 4 4 2 2 2 3 2 2 1 2 2 2 4 3 2 2 3 3 3 5 6 6 6 6 6 7 7 7 7 7 7 6
3 2 3 16 23 18 14 14 11 8 8 7 5 2 2 1 1 1 1 0 1 2 4 1 1 2 2 2 2 4 4 3 3 3 3 2 2 3 4 2 4 6 7 3 2 1 1 2 5 5 3 4 3 5 2 5 6 4 4 4 3 3 1 2 1 1 1 1 3 4 4 2 3 4 4 6 8 8 8 7 8 9 9 8 7 6 7 6
2 3 2 17 21 11 14 21 15 8 7 5 3 2 2 1 1 2 2 1 1 2 2 1 1 2 2 3 2 2 3 2 3 3 2 2 2 2 3 2 3 6 7 3 3 2 2 2 3 6 6 4 2 2 1 1 3 3 4 4 4 2 1 2 2 1 2 1 1 3 5 4 4 3 5 6 7 8 10 9 8 8 8 8 7 6 6 6
3 3 3 17 17 4 11 19 11 5 5 4 2 2 2 1 1 2 2 1 1 1 1 2 1 1 1 3 3 2 3 3 3 3 2 2 3 2 1 1 1 4 5 5 3 2 2 1 1 4 5 3 1 3 1 1 1 2 2 1 1 1 3 4 4 3 1 1 2 2 4 6 4 2 5 6 6 7 8 8 8 8 8 7 6 6 6 5
5 3 5 17 11 6 11 10 4 4 5 2 2 2 1 1 1 1 2 1 1 0 2 2 1 1 1 1 2 2 2 3 3 3 2 1 2 0 1 1 2 2 1 1 2 1 1 2 0 3 4 2 5 5 1 0 2 5 3 1 3 3 4 3 2 4 1 2 2 1 3 5 4 3 5 5 5 6 6 7 6 6 6 6 6 5 5 5
4 2 7 16 6 10 14 7 3 5 4 0 1 1 1 1 1 1 2 3 2 1 3 2 1 2 0 0 1 1 1 1 1 2 2 1 1 3 3 4 3 0 2 1 2 1 0 2 1 3 4 3 5 5 3 2 4 4 2 2 3 2 3 4 5 3 1 3 1 1 2 5 5 4 5 5 5 5 5 5 5 5 5 5 5 5 5 5
2 2 6 18 12 9 9 4 2 4 1 0 2 2 2 2 2 2 2 2 2 1 2 1 1 1 1 1 1 1 0 2 1 2 2 2 1 3 3 4 2 2 1 1 1 1 1 0 1 2 4 6 6 6 6 4 3 2 0 1 3 3 3 1 1 2 0 4 1 1 4 5 4 3 4 4 5 5 6 5 5 5 5 5 5 5 5 5
4 2 4 16 21 14 6 4 6 5 3 3 4 3 2 2 1 1 1 1 1 2 2 1 1 1 1 1 1 1 1 1 1 2 3 2 1 2 3 4 2 1 1 3 2 1 0 1 2 4 2 4 4 4 4 4 3 1 1 1 2 2 2 1 1 3 1 3 1 1 6 6 4 3 4 5 5 6 7 6 6 5 5 6 5 5 5 5
3 3 2 8 13 10 4 2 5 5 4 4 4 3 3 2 2 1 2 1 1 1 1 1 1 2 2 4 4 3 3 2 0 2 3 1 2 2 3 4 3 2 2 2 1 1 2 0 1 4 4 4 4 7 6 2 2 4 3 1 2 2 2 4 3 2 3 1 4 5 7 6 7 5 5 6 7 8 8 6 6 5 5 6 6 5 6 5
2 2 1 1 3 4 5 5 5 4 2 4 3 2 2 2 2 2 1 0 0 1 1 1 3 3 2 4 3 2 4 4 3 3 1 1 3 3 2 3 3 2 3 2 2 3 4 2 1 3 5 7 7 9 9 4 3 5 4 3 3 4 4 6 3 5 3 2 5 7 4 5 10 8 6 7 7 8 7 6 6 6 6 6 6 5 6 6
3 2 1 2 2 2 2 3 4 5 5 4 4 1 2 3 2 1 1 1 1 1 1 2 5 4 1 1 2 1 4 5 3 1 0 1 2 4 2 2 3 2 3 1 0 4 4 2 3 1 5 8 7 8 8 5 4 4 4 4 4 5 6 5 6 7 5 3 7 8 5 9 13 11 8 8 7 7 7 6 6 6 6 6 5 6 6 6
3 3 1 2 4 3 3 1 4 6 6 5 4 2 2 3 2 1 1 2 3 3 2 1 4 6 4 0 3 1 2 2 1 2 1 1 2 2 1 2 3 1 2 2 2 2 3 2 3 2 5 9 9 7 5 2 4 4 4 6 5 7 8 7 6 6 6 7 10 10 11 14 13 10 9 7 6 6 6 5 6 6 6 6 6 6 7 7
2 3 1 4 4 2 1 2 4 5 5 4 3 1 1 3 1 2 1 2 1 3 3 1 4 6 5 0 4 3 4 4 3 5 3 1 2 1 1 2 2 3 4 2 2 1 2 2 3 1 2 7 7 6 5 5 6 6 5 5 5 6 6 5 5 5 5 7 10 9 11 13 9 6 8 6 5 5 5 6 6 6 6 6 6 7 8 8
4 5 6 6 4 2 2 2 4 5 3 3 2 1 1 1 3 2 1 1 2 1 0 1 4 5 2 3 4 3 6 5 6 7 6 4 3 3 2 2 2 2 4 1 1 2 2 1 3 4 3 6 5 4 8 9 4 4 5 5 6 6 5 4 4 4 5 6 9 7 7 9 6 3 4 5 5 6 7 7 6 5 6 6 7 8 10 10
6 5 5 7 4 2 2 2 4 4 2 1 1 1 0 2 4 3 1 1 1 2 3 4 1 2 2 2 1 4 6 6 6 6 5 4 3 3 3 3 4 3 1 1 0 1 2 1 2 2 1 6 5 5 9 7 5 3 5 5 7 6 4 4 5 5 6 6 6 6 7 9 7 4 5 7 7 7 7 6 5 5 6 6 7 9 10 8
Wind_Direction
192 295 312 320 326 328 330 333 334 333 332 328 326 323 319 319 319 315 307 297 292 291 292 296 306 317 329 337 336 329 330 322 312 349 43 19 351 346 340 331 331 327 323 319 319 333 320 289 273 260 264 274 222 224 230 216 140 76 106 163 237 215 208 214 212 228 156 174 227 244 74 116 141 105 121 67 69 83 73 60 61 58 58 81 106 122 124 122
319 322 324 330 330 332 335 337 337 336 332 327 325 321 317 318 317 317 312 304 297 293 294 295 303 315 328 339 336 332 333 323 322 57 47 7 350 342 332 328 330 329 330 329 335 345 336 306 303 298 266 234 224 219 197 207 152 124 134 169 229 206 215 213 176 209 141 155 178 117 80 105 142 161 117 78 70 72 75 59 68 77 73 85 102 115 116 116
336 335 334 335 334 336 337 338 338 334 331 327 324 321 318 317 313 313 309 305 299 294 296 296 302 313 325 338 339 335 334 331 357 68 14 2 353 344 335 329 328 330 333 335 335 329 312 295 301 307 239 229 252 217 199 231 194 173 137 179 241 217 238 266 149 166 150 144 130 114 76 69 28 22 79 104 79 51 72 72 79 99 107 102 103 112 115 116
351 345 341 339 337 338 337 339 338 334 332 329 326 326 323 321 316 310 305 303 301 296 295 295 300 309 322 335 339 335 340 0 25 2 359 0 357 352 345 334 329 330 331 334 328 311 303 295 294 298 232 250 285 43 190 228 209 180 158 198 236 217 240 260 137 130 140 132 126 144 91 78 41 33 37 113 87 40 45 3 98 126 126 120 117 120 122 123
359 349 342 341 340 341 340 340 338 335 333 329 328 327 326 327 323 316 309 303 300 298 297 297 300 309 322 334 339 334 1 24 324 338 350 352 351 349 348 340 333 330 329 335 329 316 308 293 289 318 334 271 310 3 235 231 185 195 201 210 223 218 236 214 156 101 139 103 95 109 87 101 95 45 28 75 88 83 271 322 84 128 130 124 122 115 107 97
357 346 343 344 345 346 345 342 339 336 332 330 330 327 325 322 319 317 311 304 299 297 300 300 302 315 327 337 342 338 69 69 302 341 343 343 341 338 349 345 342 347 335 338 335 326 319 305 315 330 332 274 269 255 253 248 175 212 253 224 219 216 228 192 148 29 77 79 64 77 85 101 95 65 34 64 80 151 296 14 74 96 93 92 89 84 79 73
357 351 353 353 353 350 347 343 338 335 332 332 331 328 324 317 313 311 307 307 302 296 299 302 310 323 333 340 346 19 92 144 327 349 335 336 339 339 355 348 350 356 341 338 333 327 338 344 322 247 236 265 246 232 260 277 180 201 250 255 227 222 217 160 140 91 80 83 71 73 74 79 94 92 49 60 63 59 67 65 75 77 76 78 75 74 74 74
7 11 9 1 357 352 348 344 338 336 336 336 334 329 322 314 308 303 303 303 301 300 298 306 319 330 338 341 2 43 46 284 340 344 324 335 349 356 359 352 350 347 340 328 314 303 323 349 331 318 330 273 259 277 289 318 334 202 241 285 281 296 101 126 123 106 93 94 82 71 73 81 94 99 77 59 53 58 70 68 72 74 73 73 73 74 76 75
19 18 9 1 356 353 350 345 341 340 340 339 334 329 324 318 312 305 300 292 294 297 294 310 324 334 344 346 52 61 343 329 348 337 335 347 351 356 355 346 329 331 337 322 319 314 280 1 2 46 343 278 324 334 323 351 319 254 247 332 353 348 67 112 107 113 112 102 90 82 90 103 101 94 69 53 63 68 68 63 65 71 68 66 68 70 74 77
19 12 4 359 356 355 351 346 343 342 343 341 336 332 330 327 323 315 302 287 286 287 287 304 314 340 349 352 58 77 303 4 359 346 355 353 346 346 347 337 320 324 339 325 338 352 357 85 346 332 261 281 335 319 322 135 242 284 347 7 348 320 295 143 137 137 118 92 104 106 110 92 44 76 81 68 76 76 71 64 62 68 68 66 66 65 69 72
12 6 1 357 358 357 352 346 343 343 345 345 341 341 343 340 337 329 315 290 275 275 278 283 315 352 358 39 82 138 321 4 2 2 358 344 346 347 336 332 322 317 339 326 334 9 33 23 358 18 290 286 322 315 328 241 269 316 20 356 319 320 312 192 152 156 117 88 115 114 105 43 15 56 106 105 80 78 78 70 65 69 70 68 68 66 67 68
5 1 0 359 0 358 355 348 345 348 348 350 350 352 0 360 358 351 338 310 279 284 274 287 353 4 41 63 86 164 354 2 358 360 349 336 347 350 330 326 328 308 319 318 309 342 3 356 17 43 230 272 318 318 325 299 310 339 38 351 303 335 321 262 170 157 121 121 140 118 83 24 28 80 102 100 89 81 80 75 70 72 72 71 71 69 68 69
359 0 0 359 360 359 357 350 349 351 348 354 358 2 15 13 4 351 338 333 315 323 291 333 355 79 79 72 48 65 18 1 351 350 346 339 344 351 340 315 326 322 300 298 289 308 324 327 16 192 232 81 287 286 302 313 333 307 359 140 298 352 324 295 162 135 100 128 159 140 126 22 62 109 111 105 99 87 81 79 77 76 76 75 74 74 71 70
360 358 356 356 359 358 357 353 351 350 349 355 359 12 24 16 7 350 338 355 16 40 41 25 73 111 80 125 245 57 22 355 351 351 349 339 336 343 346 319 309 305 278 295 292 301 305 297 335 269 250 135 229 308 341 340 331 257 338 352 338 14 296 326 35 105 80 125 149 113 149 157 134 127 120 113 104 98 94 90 89 87 84 82 80 82 78 73
359 354 353 354 356 355 357 355 350 348 349 352 358 24 26 20 19 13 14 54 97 86 81 63 79 89 71 82 285 30 4 354 353 356 352 336 328 330 336 327 311 292 273 294 292 288 298 296 341 169 292 329 60 12 341 338 337 53 46 316 347 141 268 335 23 98 120 236 70 96 122 147 164 138 118 116 109 105 104 102 101 97 94 94 89 87 87 82
353 352 352 352 353 354 355 355 350 346 345 348 355 32 36 33 32 32 43 82 99 85 75 59 21 74 85 4 332 0 352 347 342 352 355 342 325 309 329 330 313 291 264 274 287 279 286 288 309 147 8 350 53 64 13 4 343 355 95 262 312 38 287 332 336 353 135 142 24 82 135 153 173 130 116 118 113 109 109 111 109 105 102 99 97 95 96 92
347 349 351 351 351 350 351 353 348 343 341 345 353 75 68 51 44 43 50 87 99 80 55 38 358 68 90 1 351 350 330 329 326 335 348 350 333 300 333 341 325 329 263 248 289 299 284 217 327 72 41 5 37 79 43 359 329 331 32 293 285 282 293 294 282 331 61 90 44 67 112 138 142 121 121 121 117 113 114 119 116 114 111 105 106 103 101 101
343 345 348 347 346 345 346 349 345 342 337 340 353 118 112 62 52 50 50 79 128 45 32 22 18 76 30 338 347 323 318 321 319 331 347 352 344 306 311 275 309 347 322 263 291 289 345 345 56 52 22 10 18 65 92 248 231 268 308 329 294 290 290 271 237 289 38 74 89 91 103 121 115 115 121 119 119 116 116 122 119 116 115 113 112 109 109 106
339 339 341 340 343 343 343 344 345 342 332 335 353 96 168 82 54 49 46 53 68 45 53 349 17 114 280 305 318 322 321 317 308 340 352 351 344 329 292 229 258 6 32 14 325 183 104 28 41 42 348 331 339 71 165 217 215 232 259 235 244 279 290 274 258 269 85 84 83 103 115 121 111 111 115 114 113 112 115 116 116 120 118 116 114 111 112 105
337 335 335 338 341 342 342 342 344 342 332 333 345 40 129 91 44 28 29 42 65 99 131 231 329 115 299 301 327 340 341 338 327 347 353 350 341 345 8 215 15 53 42 353 275 274 90 65 52 189 245 259 270 263 224 235 241 237 280 284 266 271 291 286 283 305 104 92 42 100 114 109 106 109 116 120 116 115 122 123 124 126 121 120 119 115 112 106
334 334 335 339 340 342 341 340 348 349 335 336 8 66 120 129 100 172 358 26 10 51 105 248 42 73 312 298 337 354 6 354 345 348 354 354 352 4 7 16 49 36 335 287 289 11 66 73 315 238 244 266 280 275 289 0 351 343 323 315 327 290 261 266 257 296 87 93 72 106 102 85 82 88 101 115 119 126 133 133 132 127 122 125 124 123 122 118
337 337 339 340 341 342 343 351 4 1 351 28 73 83 115 131 111 166 152 80 348 357 6 346 43 33 327 319 347 358 52 357 341 342 355 359 11 21 350 28 61 33 339 4 30 18 45 63 288 280 286 310 322 340 29 33 17 356 345 342 327 298 266 294 306 325 63 98 138 130 102 87 64 62 62 75 99 117 123 128 132 133 132 135 137 137 140 139
343 342 343 342 344 344 350 25 18 16 51 66 76 83 104 102 98 164 130 101 356 340 7 14 35 9 349 7 355 0 55 24 339 328 352 2 11 16 22 35 38 24 10 22 57 67 53 283 280 307 338 346 351 22 38 30 21 17 18 44 284 309 15 311 307 328 37 91 138 131 98 90 59 51 50 53 84 102 108 117 122 132 138 143 148 150 152 151
350 351 352 347 349 348 1 66 33 33 56 63 72 76 99 99 97 164 136 94 70 322 329 352 55 14 350 330 344 358 78 43 344 321 350 10 0 349 40 47 38 30 2 7 86 100 107 258 293 3 356 17 48 33 36 29 1 340 39 96 231 309 331 233 275 332 26 61 121 122 88 104 130 92 83 62 83 102 108 116 117 126 135 139 147 154 158 159
6 7 2 359 356 353 18 89 41 51 67 58 65 63 85 100 104 172 124 76 26 313 323 348 57 6 330 313 325 316 144 42 2 316 346 19 6 346 16 347 59 26 345 14 75 92 31 287 15 18 356 36 71 45 32 43 357 322 297 152 206 262 288 274 324 7 34 348 175 141 106 258 159 138 168 133 94 107 108 116 127 137 141 147 157 161 164 165
21 20 12 8 2 1 59 112 31 56 106 47 40 39 73 97 103 161 112 69 8 318 352 349 9 354 338 336 326 305 91 357 326 341 6 16 350 120 41 336 39 24 337 32 67 94 349 345 32 36 23 45 62 46 14 62 44 327 265 217 233 257 285 286 325 12 187 245 220 175 189 240 168 180 194 167 135 133 120 124 142 151 156 164 167 166 167 167
31 28 19 10 1 7 69 132 9 23 115 32 19 44 82 115 104 128 76 54 4 338 4 323 332 1 344 339 345 74 93 307 325 4 21 18 355 141 63 5 11 353 311 70 30 352 4 357 17 34 43 49 41 355 319 66 71 285 259 324 316 298 288 280 268 224 222 269 261 199 197 197 186 203 183 156 148 154 151 152 162 169 173 171 168 170 169 166
27 25 17 8 359 10 54 128 24 93 99 46 25 57 110 145 131 97 82 70 335 3 19 297 323 349 340 350 14 75 192 286 11 353 5 23 13 41 72 22 6 315 309 83 27 318 32 16 8 32 43 39 4 300 283 82 88 257 267 335 304 275 265 258 230 232 250 352 306 247 188 174 282 136 144 150 154 184 192 183 182 183 180 170 167 172 165 163
5 8 8 6 3 13 46 111 83 93 95 64 78 93 140 145 122 65 77 108 313 4 220 318 345 334 344 360 17 42 344 355 63 325 355 23 12 20 93 18 11 337 347 79 98 277 46 31 290 76 56 13 296 287 258 171 226 272 306 321 295 277 253 220 192 213 40 61 270 261 188 177 268 102 157 175 176 204 200 188 190 189 183 174 172 174 168 170
355 357 2 8 22 19 30 104 60 58 97 89 124 150 141 104 75 62 46 26 17 331 294 19 3 334 7 11 353 5 17 355 338 3 23 23 12 19 61 15 30 46 19 35 73 243 301 286 164 89 64 265 275 293 263 197 229 319 352 342 317 325 18 95 110 102 63 339 270 283 170 144 121 162 184 217 233 207 181 177 192 188 179 176 173 170 168 169
356 358 3 12 25 20 14 69 5 15 110 128 148 142 109 46 57 87 73 299 352 339 347 5 337 351 15 22 354 350 4 338 334 32 28 10 21 21 21 15 17 35 19 9 7 344 348 1 3 319 298 2 324 320 325 3 36 17 10 14 348 339 17 29 10 52 58 281 275 327 26 88 120 223 199 280 308 269 171 173 182 182 176 172 169 167 166 166
4 2 6 13 20 18 18 348 330 10 129 149 151 107 85 45 31 83 302 320 346 343 344 312 310 342 351 16 13 336 333 337 346 49 55 31 42 37 40 32 359 8 13 358 346 348 357 344 326 310 315 35 28 346 347 1 21 19 9 33 27 355 11 11 347 15 25 246 272 339 24 56 55 268 269 312 341 337 229 183 176 175 173 170 170 169 171 171
18 12 8 11 15 16 20 18 14 109 142 154 137 62 76 77 39 287 308 338 345 308 313 275 299 315 337 22 5 328 336 345 348 24 54 77 63 40 41 37 32 39 349 331 356 357 340 312 337 0 340 20 55 43 2 339 347 357 1 43 49 40 27 345 312 345 323 270 293 324 26 41 324 301 284 313 327 322 289 185 171 167 168 172 172 171 175 177
31 24 11 10 16 18 22 29 55 124 142 132 91 50 65 76 16 323 345 306 259 324 331 312 318 331 16 51 342 338 6 334 354 31 26 40 47 18 14 13 22 42 63 4 14 18 7 318 331 10 335 1 42 104 169 237 309 304 261 108 84 88 99 226 257 323 296 282 303 330 26 157 281 295 241 287 313 334 7 120 138 142 157 161 161 167 172 179
72 36 16 11 13 17 21 29 57 128 142 89 67 58 75 96 251 37 341 279 299 334 316 325 9 23 14 357 331 12 24 309 355 49 39 35 47 15 7 356 360 19 45 38 350 357 15 281 265 301 343 41 18 280 171 85 348 294 301 81 33 22 155 192 236 241 262 291 307 346 41 206 224 289 268 330 355 6 33 69 94 109 140 144 158 177 180 194
91 46 24 14 10 10 13 15 27 83 125 83 68 59 93 157 206 150 226 276 327 309 316 346 31 44 352 326 348 358 0 305 349 36 48 59 64 22 3 343 7 27 40 77 355 355 10 286 282 331 12 46 356 298 342 60 28 334 30 24 290 233 138 128 291 282 3 0 301 92 193 257 315 296 268 334 346 348 38 69 110 142 158 159 181 197 200 208
81 43 25 13 7 4 4 4 13 47 80 80 77 86 138 174 191 183 243 321 318 299 20 23 21 32 353 327 334 340 347 353 358 23 46 54 42 18 359 323 16 34 21 77 133 228 77 297 293 344 22 303 263 358 351 22 88 76 36 299 294 8 92 89 337 333 26 18 278 151 189 228 149 260 247 216 225 231 218 206 191 192 193 195 209 214 212 208
57 29 27 9 5 3 5 19 52 73 73 72 74 94 102 91 207 185 244 337 331 21 55 65 1 48 36 342 313 327 354 9 351 8 50 43 19 49 38 319 331 21 359 18 81 213 112 326 293 324 46 304 333 52 5 338 22 85 107 302 26 58 11 6 15 333 0 323 292 300 280 228 182 198 215 212 214 215 219 217 211 213 212 210 221 224 217 208
35 43 24 359 360 4 25 54 70 66 67 74 78 92 98 100 289 264 161 108 81 71 63 36 319 35 45 36 318 320 357 17 338 357 61 40 2 65 62 319 305 347 346 21 92 269 96 91 285 303 350 326 1 48 24 321 339 19 37 11 45 120 193 302 318 173 170 278 288 309 321 300 232 208 185 199 210 205 209 215 214 216 215 215 220 218 209 206
22 77 17 354 359 15 58 63 59 48 62 85 125 106 77 140 274 278 203 163 120 104 85 355 1 23 344 2 9 329 356 353 338 16 59 21 15 40 37 14 318 328 336 23 75 324 358 89 264 302 338 9 15 5 159 265 324 8 36 14 359 358 350 340 333 146 140 198 269 311 307 273 250 204 164 188 207 200 201 211 217 221 222 220 215 201 199 210
39 85 325 350 358 20 67 56 45 41 68 74 103 84 55 146 185 304 256 205 128 124 120 144 123 59 354 359 355 330 348 341 350 56 55 19 44 26 349 81 298 317 349 23 29 6 12 69 250 300 337 6 286 255 218 242 230 132 105 71 84 43 40 23 333 321 58 141 202 254 281 268 256 193 173 185 196 199 200 206 217 223 219 214 207 199 201 212
54 93 326 352 10 97 77 52 12 39 76 69 68 93 84 129 113 329 299 5 52 26 44 94 115 51 68 11 334 328 8 353 359 46 61 57 71 254 283 308 274 260 73 5 307 277 135 102 336 288 290 267 256 263 280 137 125 114 101 104 112 88 84 95 275 283 338 318 264 207 252 266 259 214 197 195 195 199 194 189 201 215 211 207 215 221 221 222
67 132 1 6 32 113 80 55 348 35 67 149 32 55 46 76 88 12 3 26 31 15 26 33 57 54 81 219 14 355 31 30 6 43 77 94 179 228 264 310 307 146 95 356 290 282 105 94 41 299 299 299 293 306 339 37 74 70 26 40 93 111 131 157 197 197 207 292 308 47 272 268 263 235 211 200 196 205 209 196 193 208 224 223 229 240 245 241
95 150 17 23 48 103 88 87 119 72 76 93 52 32 14 48 85 60 19 11 8 68 63 1 9 57 257 198 125 236 219 73 34 38 80 95 188 234 261 293 316 71 79 209 226 313 315 128 46 11 345 341 341 343 344 342 9 55 63 43 83 105 91 99 175 102 192 255 196 152 251 259 260 238 214 207 201 209 227 225 206 211 235 245 244 249 250 249
70 69 350 23 42 65 91 142 136 124 140 104 72 51 38 32 44 145 141 23 339 143 125 308 351 103 276 339 47 315 29 79 295 3 41 43 307 275 265 266 266 103 195 217 212 2 157 193 103 91 47 336 328 311 305 307 324 13 145 96 93 110 92 114 111 88 213 266 346 198 237 269 292 259 232 235 228 228 240 239 227 226 232 236 242 249 249 250
78 52 337 6 27 46 68 91 101 111 137 117 68 30 67 53 315 238 128 65 322 118 108 313 12 68 20 29 38 358 357 4 38 65 44 340 289 277 245 245 249 207 191 198 190 91 89 229 135 138 177 219 238 257 267 281 301 293 282 272 175 172 120 105 106 156 199 269 322 246 227 278 295 268 245 249 237 233 239 234 232 239 240 238 240 243 246 247
98 87 88 28 6 29 37 25 52 83 121 124 102 22 59 58 330 340 52 113 251 52 68 33 41 49 30 35 40 328 329 355 37 72 57 274 283 302 266 239 263 232 175 166 181 121 77 344 269 173 219 230 229 255 273 280 252 248 261 272 222 190 127 107 150 223 186 72 296 254 222 287 287 273 260 258 246 233 231 227 233 241 241 242 246 249 252 252
83 128 168 128 89 65 50 25 54 71 59 78 104 83 48 48 36 10 321 319 4 34 73 34 19 22 32 73 83 326 334 0 19 40 13 272 301 336 338 269 271 219 143 88 9 117 100 274 240 197 279 280 270 265 263 250 237 226 230 256 238 183 161 168 216 223 172 166 254 263 273 279 279 283 277 258 238 224 220 222 233 241 242 246 255 259 258 259
87 100 11 60 97 152 167 76 70 73 61 67 80 63 75 84 61 280 278 19 359 347 63 71 329 331 325 311 112 98 328 6 341 273 218 220 293 343 20 285 280 273 95 43 335 119 119 262 246 199 284 295 294 283 275 266 267 259 246 240 211 182 188 201 222 222 204 224 252 268 278 274 271 275 272 248 211 208 222 234 244 249 249 249 255 261 262 262
127 134 133 67 73 123 155 52 73 75 51 54 74 58 91 114 135 271 332 79 21 329 24 66 292 302 301 280 106 138 212 186 212 239 196 140 300 262 166 220 262 327 14 46 331 349 86 298 290 96 327 299 287 290 316 309 264 249 251 238 207 205 220 223 230 231 228 252 263 270 279 279 270 257 258 245 215 226 247 251 250 248 249 256 262 268 273 273
102 128 135 109 68 23 25 32 76 86 38 17 80 140 54 124 185 191 341 92 148 186 221 226 285 307 338 72 104 189 218 196 207 223 197 180 219 210 199 198 187 316 340 21 352 356 56 313 329 45 19 287 274 305 318 314 293 267 274 251 219 220 231 227 230 220 211 250 276 285 283 279 274 254 263 262 243 244 251 249 251 251 253 264 273 280 285 282
96 100 114 106 79 26 39 28 45 75 77 332 159 160 157 219 198 150 78 355 80 150 191 189 226 359 31 30 245 216 213 204 212 221 204 197 228 240 243 214 172 170 221 161 254 323 101 94 329 41 347 274 286 321 318 334 10 316 270 225 206 218 228 237 259 248 226 236 267 273 265 271 280 279 283 281 261 248 251 248 250 261 258 259 273 285 292 283
Height
817 817 817 817 816 816 815 815 814 813 813 812 811 811 810 810 809 808 808 807 807 807 807 807 806 806 805 804 803 802 801 800 801 801 801 802 802 801 800 800 799 798 797 796 796 796 795 795 794 794 795 795 795 794 793 792 792 797 807 817 820 819 815 806 802 801 801 803 800 798 798 800 805 805 803 807 814 821 825 828 829 827 828 829 831 836 839 842
817 817 816 816 816 815 815 814 813 813 812 812 811 810 810 809 808 808 808 807 807 807 807 806 806 806 805 804 803 802 801 800 801 802 802 803 802 801 801 800 799 798 797 796 796 796 796 796 795 795 796 796 795 793 793 792 791 798 808 815 815 812 805 797 798 797 797 800 799 798 798 799 804 804 802 812 823 824 827 834 834 833 835 835 836 839 841 844
816 816 816 816 815 815 814 814 813 812 812 811 810 810 809 808 808 807 807 807 806 806 806 806 806 805 805 804 803 802 801 800 801 803 803 802 802 801 800 799 799 798 797 797 796 796 797 796 795 796 796 796 794 793 794 793 793 797 804 813 810 803 799 795 796 796 796 797 798 799 798 803 809 805 806 817 827 829 833 838 837 837 839 839 840 841 843 846
816 816 816 816 815 815 814 814 813 812 811 811 810 809 808 808 807 807 806 806 806 806 806 805 805 805 805 804 803 802 800 801 803 803 803 802 801 800 800 799 798 798 797 796 796 795 795 795 794 794 795 796 794 793 795 793 794 796 800 806 801 797 799 797 796 796 795 795 796 800 800 808 814 813 814 816 823 833 837 837 838 839 840 841 842 844 846 847
817 816 816 816 815 815 814 813 812 812 811 810 809 808 807 807 806 806 805 805 805 805 805 805 805 804 804 803 803 801 801 806 806 803 803 802 801 800 799 798 797 797 796 796 795 794 794 794 793 794 795 796 795 795 796 791 791 795 797 797 794 794 797 797 796 795 795 794 795 799 802 810 817 822 825 820 826 838 839 836 837 838 840 842 843 846 848 850
817 816 816 815 815 814 813 813 812 811 810 809 808 807 807 806 805 805 805 805 805 805 804 804 804 804 804 803 803 801 803 810 807 803 803 801 800 799 798 798 797 797 796 795 794 794 794 793 794 796 796 797 797 797 795 790 790 795 796 792 791 793 794 795 795 795 795 794 797 800 804 813 820 829 834 830 835 840 838 838 838 840 842 843 846 848 851 853
817 816 816 815 815 814 813 812 811 810 809 808 808 807 806 805 805 805 804 804 804 804 804 803 804 804 804 803 803 802 804 807 805 803 803 801 800 799 798 797 797 796 795 795 794 794 794 794 796 796 797 798 797 796 793 790 789 794 794 790 790 790 791 793 794 796 795 796 801 802 807 817 820 828 836 836 839 841 840 841 840 842 845 845 850 852 854 856
817 816 816 815 814 814 813 812 811 810 809 808 808 806 806 805 804 804 803 803 803 803 803 803 804 803 803 803 803 804 805 806 804 804 802 801 800 798 798 797 797 796 795 795 794 795 795 795 796 795 799 800 797 796 793 792 792 793 793 791 789 789 791 794 795 797 796 800 803 805 815 824 824 828 837 841 844 844 842 843 844 845 847 850 854 856 858 859
817 816 815 815 814 813 812 811 810 809 809 808 807 805 804 803 802 802 801 802 802 802 803 803 803 803 803 803 803 807 807 805 804 803 802 801 800 798 798 797 797 796 795 795 794 794 795 796 797 797 800 800 797 795 793 796 797 795 793 792 791 791 794 795 796 797 797 801 804 813 827 831 828 829 840 848 848 847 845 847 849 848 851 855 858 860 861 862
817 816 815 815 814 813 812 811 810 809 808 807 806 805 804 802 802 801 800 801 801 802 802 802 803 803 803 803 805 809 807 804 804 803 802 801 799 798 798 797 797 796 795 795 794 795 795 796 796 796 798 798 797 796 794 797 798 794 792 792 792 792 794 794 796 796 798 801 804 816 831 832 827 829 844 853 850 848 849 852 854 853 857 860 861 863 863 864
817 816 816 815 814 813 812 811 810 809 808 807 806 804 803 802 801 800 800 800 800 801 801 802 803 803 803 803 806 809 806 804 804 803 802 800 799 797 796 797 796 796 796 795 795 795 795 795 794 795 797 797 798 797 795 797 796 793 792 793 792 791 793 793 795 797 798 803 807 815 826 832 831 835 849 853 852 852 853 858 859 859 862 864 865 866 866 867
817 816 815 815 814 813 812 811 810 809 808 807 806 804 803 803 802 801 800 800 800 800 801 802 802 803 803 804 806 807 805 804 804 802 801 800 799 797 796 796 796 796 796 795 795 795 795 795 794 797 798 798 799 799 796 796 795 792 793 797 797 795 795 793 794 797 798 803 809 808 818 837 843 845 854 854 854 855 857 862 864 865 867 867 868 869 870 871
817 816 815 815 814 813 812 811 810 809 808 807 806 805 804 803 802 801 800 800 800 800 801 801 802 802 802 805 806 805 805 804 803 802 801 800 798 797 796 796 796 795 795 795 795 795 795 795 795 797 796 798 800 799 796 794 794 794 796 799 801 802 800 796 795 797 798 802 806 802 816 848 854 851 855 854 856 858 862 867 867 869 870 871 872 871 873 874
817 816 816 815 814 813 812 811 810 809 808 807 806 805 804 803 802 801 800 800 800 800 801 801 802 802 803 806 806 805 805 804 803 802 801 799 798 796 795 795 795 795 795 795 795 795 795 795 795 796 796 798 798 796 797 797 795 797 800 802 805 809 804 800 799 800 802 804 805 803 823 853 854 851 856 855 857 859 865 870 871 873 873 874 875 874 876 877
817 817 816 815 814 813 812 811 810 808 807 806 805 805 805 803 802 801 800 800 800 801 801 801 802 802 804 806 805 805 805 803 803 802 801 800 798 796 795 795 794 795 795 795 795 795 795 795 796 797 797 796 797 800 802 802 799 800 804 806 809 812 808 804 802 802 803 805 805 805 830 855 851 851 857 855 858 861 866 872 872 875 875 876 877 877 879 879
818 817 816 815 814 813 812 810 809 808 808 806 806 806 805 804 803 801 801 800 801 801 801 802 802 802 806 808 805 805 805 804 803 802 801 800 798 796 795 794 793 794 795 794 795 795 795 795 796 798 798 798 801 805 808 808 806 805 809 810 810 811 811 807 804 803 802 804 810 813 835 855 849 851 858 857 860 862 867 873 874 876 877 878 879 880 881 881
818 817 816 815 813 812 811 810 809 808 807 806 805 806 805 804 803 802 802 801 802 802 801 803 802 803 807 808 806 807 806 805 803 802 801 799 798 797 795 795 794 794 794 794 795 795 796 796 797 799 801 804 805 806 812 816 815 812 813 812 810 810 812 810 807 806 803 807 820 827 838 849 848 854 859 858 861 863 869 873 875 877 878 880 880 881 882 883
817 816 815 814 813 812 811 810 809 807 807 806 805 805 805 805 804 803 802 802 802 801 802 803 803 808 813 809 809 810 806 805 804 802 801 798 797 796 796 796 795 795 795 796 796 796 797 797 799 802 806 811 811 811 816 820 819 817 816 815 814 811 811 812 809 808 810 818 830 836 842 848 851 856 859 860 862 864 869 873 875 878 879 881 882 883 884 884
817 816 815 813 812 811 810 809 808 807 806 805 805 805 805 805 804 804 803 803 804 807 811 812 810 817 819 812 811 810 806 805 804 802 800 797 795 794 795 795 795 796 797 799 799 798 799 801 805 810 815 817 816 817 817 817 817 816 816 816 816 815 812 812 811 810 815 827 839 841 845 851 854 858 860 862 864 865 870 874 876 879 880 882 883 884 885 886
816 815 814 813 812 810 809 808 807 807 805 805 804 804 805 807 808 809 808 807 810 814 816 817 815 817 816 813 811 809 806 805 804 803 800 797 795 794 794 795 796 797 799 801 801 799 800 808 816 818 819 819 817 816 815 814 815 816 817 815 816 817 815 813 812 813 814 826 844 847 848 854 856 861 863 863 866 868 872 875 877 880 881 883 884 886 887 887
815 814 813 812 811 810 809 807 807 806 805 804 803 804 807 809 811 814 813 814 815 815 815 816 815 815 814 813 812 810 809 807 805 804 802 798 795 794 796 797 799 802 802 801 800 800 802 812 820 819 819 818 817 815 814 814 813 815 816 816 816 816 815 814 812 813 813 825 850 853 852 861 861 862 864 864 867 870 872 875 878 880 882 884 886 887 888 888
815 814 812 811 810 809 808 807 806 805 805 804 803 805 809 810 811 811 813 816 817 815 815 815 814 814 814 813 812 812 812 811 808 805 802 799 797 799 801 802 804 808 807 804 804 807 812 818 820 818 819 818 816 815 814 814 815 816 817 817 818 815 815 816 813 814 814 826 852 858 857 866 867 866 867 866 868 870 872 874 877 880 883 885 886 887 888 888
814 812 811 811 809 808 807 807 806 805 805 804 805 807 809 810 810 810 811 815 818 817 815 815 816 816 814 814 813 812 813 816 814 809 805 803 803 804 806 806 808 810 811 813 812 814 819 821 819 818 818 817 818 819 816 816 817 818 818 817 819 818 817 817 815 815 816 827 848 859 865 871 870 870 870 868 870 872 873 876 878 880 882 884 885 886 887 888
813 812 811 810 808 808 807 807 806 806 806 806 807 808 810 810 810 811 810 812 818 818 816 817 817 817 817 815 814 814 815 817 816 813 809 808 808 807 809 810 811 812 816 817 814 816 821 820 818 817 817 818 819 822 823 821 821 821 820 819 819 820 820 819 819 816 821 836 848 853 861 872 874 872 873 872 871 874 876 877 880 881 882 884 885 886 886 887
812 811 810 809 808 807 806 806 806 807 807 807 808 809 809 810 810 810 810 814 821 820 817 818 817 818 817 815 815 815 815 816 816 815 811 811 811 809 810 811 812 816 818 817 815 817 821 821 819 818 818 819 819 823 827 825 824 823 821 821 821 820 820 820 821 819 821 834 840 835 837 857 876 876 875 875 873 875 877 878 881 881 883 884 884 885 885 886
812 811 810 809 808 806 806 807 807 807 807 808 809 809 809 809 809 809 810 819 828 825 821 820 820 820 817 816 815 813 817 818 815 815 813 813 812 811 814 815 815 817 818 818 818 820 822 822 823 822 820 820 821 825 828 828 828 824 820 822 821 820 821 820 822 823 820 821 825 824 820 841 874 878 874 877 875 877 879 878 881 881 882 883 883 884 884 885
812 811 810 809 808 806 806 806 807 807 807 809 809 808 809 809 809 809 813 826 833 829 826 823 821 822 819 818 815 816 824 823 815 815 815 814 813 812 816 820 820 820 819 819 821 824 824 823 824 823 822 822 823 826 827 829 830 822 819 824 823 822 823 822 824 825 823 820 821 825 819 828 859 873 872 876 876 878 880 879 880 880 880 882 881 883 883 883
812 812 810 809 807 806 806 806 807 807 808 809 808 808 809 808 809 809 816 835 838 829 829 827 821 821 821 820 818 820 826 824 821 821 816 815 815 813 817 823 824 824 821 820 824 828 828 827 828 827 825 826 826 827 830 830 828 822 822 827 826 825 826 826 828 826 825 826 823 823 821 824 850 870 872 876 878 878 880 879 878 878 878 879 880 881 882 882
812 812 810 809 808 806 806 806 806 807 808 808 808 809 808 807 810 810 819 837 838 830 832 828 823 824 825 823 822 824 824 822 826 825 819 820 818 816 820 825 825 823 822 822 825 830 831 831 832 831 830 832 829 828 830 829 827 823 824 825 821 823 827 826 828 827 827 829 823 818 820 823 849 873 873 873 876 874 875 877 876 876 876 877 878 879 880 881
812 812 811 809 807 807 806 806 806 807 807 807 808 808 808 808 811 817 830 840 838 834 833 829 829 832 832 830 827 828 828 825 826 824 824 828 825 822 822 825 826 824 825 827 827 832 834 832 832 833 833 835 832 828 828 829 828 825 825 824 818 819 825 826 828 828 825 826 821 817 818 817 837 867 874 869 869 868 870 874 875 875 875 876 877 878 879 879
812 812 811 809 808 807 806 806 806 807 807 807 807 807 808 811 815 827 840 842 838 838 836 834 837 836 837 839 835 834 832 829 828 827 830 836 836 833 830 832 834 829 830 833 832 834 834 831 832 835 835 836 833 828 827 830 831 830 829 828 823 818 818 821 824 825 825 825 819 817 817 815 831 860 871 868 866 866 867 870 872 873 873 875 875 876 877 878
812 812 811 809 808 807 806 807 806 806 806 806 807 808 808 814 826 840 845 840 841 846 845 844 843 840 841 842 841 841 838 834 831 831 837 843 848 850 849 853 851 840 838 841 840 837 834 835 838 836 835 836 833 830 829 829 830 833 833 832 832 831 832 833 828 825 827 822 818 817 814 823 847 867 870 868 867 867 866 866 868 870 872 873 874 875 876 876
812 812 811 810 808 807 806 806 805 805 806 805 807 808 809 820 839 853 850 844 848 850 849 849 846 844 845 842 843 845 841 837 835 835 840 844 850 856 858 861 860 852 850 850 850 846 839 837 838 834 833 835 835 836 837 835 834 837 837 836 840 847 857 858 844 836 835 826 822 820 818 837 863 870 870 870 868 867 867 865 866 868 870 872 873 874 874 875
812 811 811 810 808 807 806 805 805 805 805 805 807 807 813 833 851 856 853 853 854 851 850 852 848 844 844 844 847 848 842 840 840 841 842 843 849 857 860 862 861 860 859 855 854 856 851 843 838 836 837 836 837 840 842 842 841 840 839 838 841 848 861 866 853 847 849 840 828 824 829 850 865 866 871 873 868 868 867 866 868 869 870 871 872 873 873 874
812 812 811 809 809 808 806 806 805 805 805 805 809 816 829 847 857 856 857 860 859 855 854 854 849 843 844 846 848 849 847 844 843 846 850 853 857 861 864 865 865 864 863 859 858 860 858 847 839 839 841 838 839 841 841 842 841 838 838 840 842 846 853 857 851 847 850 844 838 844 855 867 871 869 873 872 868 870 868 868 870 870 871 872 872 872 872 872
812 812 811 810 810 808 807 807 805 806 806 802 813 836 852 859 862 861 863 863 862 862 858 852 848 847 849 849 847 849 850 847 846 848 853 860 865 867 867 867 868 868 868 867 867 866 861 849 839 841 842 840 843 844 841 842 841 838 842 846 846 846 847 852 852 846 847 848 848 855 861 868 870 869 871 872 871 872 870 870 871 870 872 872 870 871 870 870
812 812 812 811 810 808 808 807 805 806 805 806 824 850 862 865 867 867 867 865 865 866 860 852 851 853 856 854 850 851 851 848 848 849 852 859 866 871 872 869 868 870 872 872 869 870 869 857 845 842 841 841 846 846 841 842 842 843 849 848 844 844 843 851 859 855 855 859 854 846 847 857 862 861 870 876 873 872 872 871 871 870 870 870 869 869 868 868
812 812 812 812 811 810 808 806 806 805 806 818 841 857 862 865 868 869 870 869 867 865 860 857 857 856 859 860 856 856 854 852 852 852 853 859 867 874 877 873 870 871 875 874 868 870 872 861 848 842 842 843 844 844 842 843 843 844 849 846 845 852 853 856 862 861 865 869 859 845 844 855 860 860 868 873 870 871 871 870 870 869 868 868 866 867 866 866
812 812 814 815 812 811 810 807 807 806 811 831 852 859 862 867 869 870 871 871 869 865 861 863 863 858 859 862 861 860 858 858 858 854 855 863 869 875 880 878 873 872 876 874 870 870 870 866 855 843 843 846 844 846 850 850 847 845 848 849 850 856 861 862 861 860 866 870 864 853 846 850 859 860 861 863 864 866 867 867 868 865 865 865 864 864 865 864
812 814 817 816 813 814 812 807 808 815 826 844 857 859 862 867 869 871 872 870 868 865 863 865 866 864 862 862 863 864 862 861 860 856 860 869 871 875 882 883 878 876 877 873 872 872 869 869 863 849 845 849 850 854 857 856 854 851 853 858 860 858 859 862 862 860 865 867 865 865 856 851 857 859 856 857 858 860 862 863 863 862 862 862 861 862 862 862
812 816 819 816 814 814 810 811 823 835 844 853 858 861 864 866 867 869 871 871 868 865 865 866 866 867 866 864 864 866 865 863 861 860 865 872 874 875 881 886 885 882 877 871 873 875 872 873 872 862 856 855 856 858 859 858 857 855 857 861 865 864 862 868 871 868 870 869 867 871 864 852 854 856 853 854 854 855 858 859 858 860 860 859 859 860 860 860
815 821 822 817 814 812 812 826 844 849 853 858 861 863 865 866 866 866 868 869 867 865 866 866 866 868 868 867 867 868 868 866 864 864 867 873 878 879 881 885 887 885 880 876 877 879 876 878 877 868 861 860 859 859 860 860 856 855 860 862 864 867 867 874 879 875 876 874 869 873 867 853 853 856 852 852 852 853 855 855 855 856 856 857 858 858 858 859
820 824 822 817 816 812 816 837 854 856 859 865 865 865 866 865 865 865 867 868 867 866 866 866 868 869 868 868 869 868 867 868 866 867 870 874 879 883 884 885 884 882 881 877 877 879 877 877 875 866 861 860 859 857 858 860 857 855 862 867 867 869 871 874 877 877 880 875 868 874 868 851 850 855 852 852 853 853 854 853 853 854 855 856 856 856 857 857
822 824 822 819 816 812 820 839 853 859 863 864 864 865 867 867 867 866 867 868 869 868 867 867 869 869 868 868 869 867 866 867 867 869 872 874 879 883 884 885 883 881 880 878 878 879 874 872 873 872 871 867 863 861 859 858 858 859 867 873 872 872 875 876 878 880 880 873 870 874 865 847 847 853 852 853 854 853 854 853 852 853 854 854 855 855 855 854
822 824 825 824 818 817 830 843 849 856 860 860 861 864 864 867 870 870 869 870 871 871 869 868 868 869 869 867 868 868 867 866 868 871 874 875 879 883 883 883 882 880 880 881 883 881 875 872 872 875 879 879 875 871 865 861 862 863 869 875 875 876 875 872 877 881 876 872 873 872 860 847 847 852 853 854 854 853 852 852 853 853 853 853 853 853 853 853
823 828 832 832 830 831 841 848 848 852 856 857 860 863 863 865 870 872 871 870 871 871 869 868 869 870 870 868 869 870 869 869 870 872 877 878 878 881 882 881 881 880 880 882 884 883 879 875 874 874 876 876 873 868 863 864 866 864 865 869 874 879 877 873 876 877 872 874 875 868 860 853 849 850 851 851 852 852 851 851 852 852 852 851 851 851 851 851
826 835 839 838 838 841 846 850 851 852 854 855 859 864 865 866 868 870 869 870 871 871 869 870 871 870 871 873 873 873 873 873 872 873 881 883 879 880 882 881 880 879 880 882 883 882 876 871 875 877 872 869 870 867 864 868 869 864 862 864 868 875 876 875 873 869 870 877 868 856 858 858 848 845 848 847 846 848 849 850 849 849 849 848 848 849 849 848
829 839 843 840 842 848 850 851 853 853 854 856 861 865 866 866 869 868 868 869 871 870 869 869 872 873 874 874 874 875 875 873 873 877 883 884 881 880 880 880 879 879 880 881 881 882 878 871 875 878 869 865 868 866 862 864 864 859 859 860 863 870 872 871 868 866 871 875 862 851 858 858 848 844 846 844 843 844 846 846 846 846 847 847 847 847 847 846
833 838 844 842 845 853 855 855 855 854 855 857 862 866 867 867 870 871 872 870 868 870 870 869 873 876 875 873 873 876 876 872 872 880 884 884 883 881 879 878 878 879 880 879 879 884 879 871 874 878 872 864 861 857 856 859 859 857 857 857 860 865 866 866 866 865 867 868 861 857 860 856 847 843 842 841 841 843 843 843 844 844 845 845 845 845 844 844
830 833 839 842 847 854 856 856 855 853 856 860 862 867 870 869 870 872 874 871 867 870 872 871 874 876 874 873 874 875 878 876 875 879 883 884 883 881 880 879 877 878 879 878 880 882 877 872 875 879 875 864 856 853 855 858 859 858 856 857 859 861 862 864 864 863 864 864 860 861 863 855 844 840 840 840 841 842 842 842 843 843 843 842 843 842 842 841
828 830 833 836 846 854 853 854 855 853 857 862 863 866 869 870 871 872 874 875 872 871 873 874 876 876 875 875 875 876 879 880 879 880 882 883 881 880 880 880 880 879 879 880 882 880 878 878 877 877 876 865 854 853 856 859 862 861 858 857 857 859 860 860 859 859 860 859 857 861 863 851 839 839 841 840 841 841 840 840 841 841 841 841 840 839 838 838
828 831 832 833 844 854 854 854 857 855 859 866 867 867 868 869 872 871 870 874 876 874 875 876 876 876 875 873 875 878 880 881 881 882 882 882 882 881 881 880 881 880 879 882 884 883 883 881 877 878 877 864 854 857 862 862 858 853 851 850 851 854 857 857 856 856 855 856 857 857 851 841 836 840 841 839 839 839 838 838 839 839 839 839 838 837 836 835